Voltar ao catálogo

CZ-3B R/B

AtivoHEO
NORAD 39459·ROCKET BODY·🇨🇳 China

Lançado Dec 1, 2013 de Xichang Satellite Launch Center

Loading…

Próximas Passagens (próximas 24 horas)

TLE

AtualizadoSource: Space-Track

Época: Sep 10, 2026, 03:47 UTC

1 39459U 13070B   26253.15808511 -.00031905  00000-0  00000-0 0  9997
2 39459  69.7637   2.0173 8376744 140.8446   4.1132  0.05566925 37288

Acompanhe CZ-3B R/B em tempo real com AllMySat

Download on the App Store